Overview Statistics Trail Chart Weather Telemetry Raw packets
 

This is the latest recevied weather packets stored in our database for station/object SV3AQT-13. If no packets are shown the sender has not sent any weather packets the latest 10 day(s).

<< 1 2 3 4 5 6 >>
Time Temp. Humidity Pressure Rain* Wind** Luminosity Snow
1788605582 30° C 65% 1019.6 hPa 0 mm 2.24 m/s, 75° - -
1788605402 30° C 66% 1019.6 hPa 0 mm 2.24 m/s, 84° - -
1788605042 30° C 65% 1019.6 hPa 0 mm 1.79 m/s, 60° - -
1788604863 30° C 66% 1019.6 hPa 0 mm 1.79 m/s, 83° - -
1788604682 30.56° C 65% 1019.6 hPa 0 mm 1.79 m/s, 46° - -
1788604502 30.56° C 64% 1019.6 hPa 0 mm 1.34 m/s, 65° - -
1788604322 30.56° C 63% 1019.6 hPa 0 mm 1.34 m/s, 49° - -
1788604142 30° C 65% 1019.6 hPa 0 mm 1.34 m/s, 82° - -
1788603962 30° C 67% 1019.6 hPa 0 mm 1.34 m/s, 54° - -
1788603782 30° C 67% 1019.9 hPa 0 mm 1.34 m/s, 79° - -
1788603602 29.44° C 65% 1019.9 hPa 0 mm 1.79 m/s, 74° - -
1788603422 29.44° C 67% 1019.9 hPa 0 mm 2.24 m/s, 55° - -
1788603243 29.44° C 68% 1019.9 hPa 0 mm 2.68 m/s, 62° - -
1788603062 29.44° C 69% 1019.9 hPa 0 mm 2.68 m/s, 40° - -
1788602882 29.44° C 67% 1019.9 hPa 0 mm 2.68 m/s, 71° - -
1788602702 29.44° C 68% 1019.9 hPa 0 mm 2.68 m/s, 65° - -
1788602523 29.44° C 66% 1019.9 hPa 0 mm 2.24 m/s, 67° - -
1788602343 29.44° C 67% 1019.9 hPa 0 mm 2.68 m/s, 64° - -
1788602162 29.44° C 66% 1019.9 hPa 0 mm 2.24 m/s, 54° - -
1788601982 30° C 66% 1019.9 hPa 0 mm 1.34 m/s, 76° - -
1788601622 30° C 65% 1019.9 hPa 0 mm 1.34 m/s, 58° - -
1788601442 30.56° C 63% 1019.9 hPa 0 mm 1.34 m/s, 76° - -
1788601262 30.56° C 66% 1019.9 hPa 0 mm 0.45 m/s, 74° - -
1788601082 30.56° C 65% 1019.9 hPa 0 mm 1.34 m/s, 53° - -
1788600722 30° C 64% 1019.9 hPa 0 mm 0.45 m/s, 76° - -

* Rain latest hour (hover to see other rain measurements)
** Current wind speed in m/s (hover to see current wind gust speed)